Location: Ozark
(37.5425°N, 88.7628°W)
Time: 07:23:26
(UTC+00:00)

Cosmos 2084 Rocket - Pass Details

Date: 26 January 2020
Orbit: 570 x 611 km, 62.8° (Epoch: 21 February)

Event Time Altitude Azimuth Distance (km) Brightness Sun altitude
Rises 12:21:20 0° 208° (SSW) 2,795 6.8 -8.7°
Reaches altitude 10° 12:23:33 10° 207° (SSW) 1,905 6.0 -8.3°
Maximum altitude 12:27:51 76° 122° (ESE) 614 3.7 -7.4°
Drops below altitude 10° 12:32:15 10° 36° (NE) 1,944 6.4 -6.6°
Sets 12:34:32 0° 35° (NE) 2,857 7.2 -6.2°
